Simultaneous Nadir Overpasses (SNOs) Predictions

Prediction of SNOs between NOAA-19 and TERRA Satellite Orbit:

Table of predicted SNOs for the next 14.0 days since TLE Epoch: 8/20/2022
Index Date (NOAA-19) Time (NOAA-19) Lat,Lon (NOAA-19) SZA (NOAA-19 ) Date (TERRA) Time (TERRA) Lat,Lon (TERRA) SZA (TERRA ) Distance(km) Time Diff (sec)
1 08/20/2022 19:44:54 80.84, -80.36 70.28 08/20/2022 19:44:55 80.84, -80.24 70.29 2.18 1
2 08/23/2022 01:17:52 -80.84, 16.37 108.97 08/23/2022 01:18:36 -80.84, 16.31 108.96 1.03 44
3 08/23/2022 02:08:46 80.84,-176.16 71.07 08/23/2022 02:08:02 80.84,-176.04 71.06 2.25 44
4 08/25/2022 07:41:44 -80.84, -79.45 108.17 08/25/2022 07:41:43 -80.84, -79.52 108.18 1.28 1
5 08/27/2022 13:14:31 80.84, 17.36 72.63 08/27/2022 13:15:22 80.86, 17.28 72.65 2.23 51
6 08/27/2022 14:05:36 -80.84,-175.31 107.36 08/27/2022 14:04:50 -80.83,-175.40 107.39 1.83 46
7 08/29/2022 19:38:23 80.84, -78.52 73.45 08/29/2022 19:38:29 80.85, -78.68 73.44 2.80 6
8 09/01/2022 01:11:21 -80.85, 18.00 105.76 09/01/2022 01:12:09 -80.86, 18.08 105.72 1.98 48



Historial Predications of SNOs between NOAA-19 and TERRA
